STARLINK-31840 (60127 NORAD) Tracking and Keplerian Element Data

This shows tracking and keplerian element data for the satellite.

Feedback or suggestion? Click here.




ElementValue
Catalog60127
NameSTARLINK-31840
Epoch Orbit1710
Epoch Day286.62670094
Epoch Year2024
RAAN252.7271
Inclination53.1596
Eccentricity8.36E-05
Argument of Perigee146.862
Mean Anonmoly213.2438
Mean Motion15.39675325
Decay Rate0.00074865
L11 60127U 24118Q 24286.62670094 .00074865 00000+0 18599-2 0 9991
L22 60127 53.1596 252.7271 0000836 146.8620 213.2438 15.39675325 17105



Live tracking and technical data element details for STARLINK-31840 (NORAD 60127). STARLINK-31840 can be tracked NOW for your location showing map with azimuth and elevation plus other details from your city location.







IsCatalogInMostPopularTable: catalog: 60127, numindb: 10
Update: records affected: 1



GetName: 60127 STARLINK-31840

Hit Count: updated at: Thu, 23 Jan 2025 15:03:12 GMT